QPF
0.04 0.05 0.07 0.10 0.08 0.08 0.09 0.10 0.07 0.08 0.07 0.04 0.03 0.02 0.03 0.03 0.05 0.03 0.02 0.01 0.00 0.01 0.01 0.01 0.03 0.04 0.04 0.04 0.04 0.03 0.02 0.03 0.03 0.02 0.01 0.01 0.03 0.03 0.03 0.02 0.03 0.02 0.02
0.04 0.05 0.05 0.07 0.08 0.08 0.07 0.08 0.09 0.10 0.09 0.07 0.05 0.03 0.03 0.04 0.06 0.04 0.02 0.01 0.00 0.00 0.00 0.01 0.02 0.03 0.03 0.04 0.04 0.04 0.04 0.03 0.03 0.02 0.02 0.02 0.02 0.02 0.03 0.03 0.02 0.02 0.02
0.04 0.04 0.06 0.07 0.08 0.08 0.08 0.08 0.09 0.08 0.07 0.07 0.09 0.06 0.04 0.03 0.03 0.04 0.03 0.02 0.01 0.01 0.00 0.00 0.01 0.02 0.03 0.04 0.04 0.04 0.04 0.03 0.03 0.03 0.03 0.02 0.02 0.03 0.03 0.03 0.03 0.03 0.02
0.04 0.05 0.06 0.06 0.06 0.06 0.09 0.10 0.10 0.09 0.08 0.08 0.14 0.09 0.04 0.04 0.03 0.03 0.03 0.03 0.03 0.02 0.01 0.02 0.04 0.03 0.02 0.03 0.04 0.04 0.04 0.04 0.04 0.03 0.03 0.02 0.03 0.03 0.03 0.03 0.03 0.04 0.03
0.04 0.05 0.07 0.06 0.03 0.05 0.08 0.10 0.10 0.11 0.10 0.09 0.08 0.06 0.04 0.02 0.03 0.03 0.03 0.04 0.03 0.02 0.03 0.07 0.08 0.03 0.03 0.03 0.03 0.03 0.05 0.06 0.05 0.04 0.04 0.04 0.04 0.04 0.04 0.03 0.03 0.04 0.03
0.04 0.05 0.06 0.05 0.04 0.08 0.11 0.10 0.13 0.13 0.11 0.09 0.05 0.05 0.03 0.03 0.02 0.02 0.02 0.03 0.03 0.05 0.04 0.04 0.05 0.05 0.04 0.04 0.04 0.04 0.06 0.07 0.06 0.06 0.06 0.05 0.04 0.04 0.04 0.04 0.03 0.03 0.03
0.05 0.06 0.05 0.07 0.08 0.10 0.12 0.14 0.17 0.17 0.13 0.12 0.12 0.09 0.06 0.03 0.02 0.01 0.01 0.02 0.03 0.05 0.05 0.05 0.05 0.05 0.05 0.05 0.04 0.04 0.06 0.06 0.07 0.07 0.08 0.06 0.05 0.04 0.05 0.05 0.05 0.05 0.05
0.05 0.06 0.06 0.07 0.09 0.11 0.11 0.12 0.16 0.17 0.16 0.14 0.15 0.14 0.13 0.10 0.05 0.02 0.02 0.02 0.02 0.02 0.02 0.03 0.04 0.05 0.06 0.07 0.06 0.03 0.05 0.06 0.07 0.08 0.08 0.07 0.06 0.06 0.06 0.05 0.06 0.07 0.07
0.04 0.05 0.05 0.06 0.08 0.08 0.09 0.10 0.12 0.16 0.17 0.16 0.16 0.18 0.17 0.14 0.11 0.06 0.04 0.03 0.04 0.05 0.03 0.04 0.03 0.05 0.07 0.09 0.08 0.05 0.04 0.05 0.05 0.06 0.08 0.08 0.07 0.07 0.06 0.06 0.06 0.07 0.07
0.05 0.05 0.05 0.06 0.07 0.07 0.09 0.08 0.12 0.14 0.12 0.12 0.14 0.15 0.15 0.15 0.13 0.12 0.09 0.05 0.05 0.07 0.04 0.04 0.04 0.04 0.05 0.07 0.08 0.06 0.04 0.04 0.06 0.07 0.08 0.07 0.07 0.07 0.05 0.05 0.06 0.07 0.09
0.07 0.08 0.09 0.07 0.06 0.06 0.08 0.08 0.09 0.12 0.13 0.13 0.11 0.11 0.14 0.13 0.13 0.13 0.11 0.09 0.06 0.04 0.03 0.05 0.08 0.06 0.06 0.06 0.07 0.07 0.06 0.05 0.06 0.06 0.08 0.09 0.08 0.08 0.07 0.07 0.06 0.07 0.06
0.12 0.12 0.10 0.08 0.06 0.06 0.06 0.06 0.07 0.10 0.12 0.11 0.09 0.08 0.11 0.12 0.12 0.12 0.10 0.10 0.10 0.05 0.02 0.03 0.05 0.09 0.09 0.06 0.05 0.06 0.06 0.07 0.08 0.09 0.09 0.09 0.08 0.08 0.10 0.10 0.08 0.06 0.05
0.16 0.16 0.15 0.12 0.09 0.08 0.07 0.06 0.07 0.10 0.10 0.10 0.10 0.10 0.10 0.10 0.09 0.10 0.10 0.09 0.08 0.06 0.05 0.04 0.03 0.07 0.09 0.08 0.06 0.05 0.03 0.04 0.04 0.04 0.05 0.06 0.07 0.07 0.07 0.07 0.07 0.07 0.06
0.08 0.07 0.06 0.05 0.03 0.03 0.04 0.05 0.06 0.07 0.08 0.08 0.10 0.11 0.10 0.08 0.07 0.07 0.08 0.10 0.10 0.09 0.12 0.09 0.06 0.04 0.05 0.05 0.05 0.05 0.02 0.03 0.04 0.04 0.04 0.03 0.04 0.05 0.05 0.05 0.06 0.09 0.08
0.04 0.04 0.03 0.03 0.02 0.02 0.03 0.03 0.03 0.04 0.06 0.07 0.10 0.12 0.09 0.08 0.07 0.06 0.07 0.09 0.11 0.13 0.11 0.08 0.07 0.07 0.08 0.07 0.07 0.04 0.05 0.05 0.05 0.04 0.03 0.04 0.04 0.06 0.08 0.07 0.07 0.09 0.08
0.04 0.04 0.03 0.03 0.03 0.02 0.02 0.02 0.02 0.03 0.04 0.05 0.08 0.12 0.12 0.09 0.08 0.07 0.08 0.08 0.10 0.10 0.09 0.07 0.07 0.08 0.10 0.09 0.10 0.07 0.07 0.07 0.04 0.03 0.02 0.03 0.05 0.05 0.06 0.06 0.05 0.04 0.05
0.06 0.06 0.04 0.04 0.03 0.02 0.02 0.03 0.02 0.03 0.04 0.05 0.04 0.06 0.09 0.10 0.10 0.10 0.10 0.09 0.09 0.10 0.11 0.08 0.08 0.09 0.11 0.11 0.10 0.08 0.06 0.04 0.03 0.02 0.02 0.01 0.02 0.02 0.02 0.02 0.02 0.02 0.01
0.03 0.04 0.04 0.03 0.02 0.03 0.03 0.02 0.02 0.02 0.03 0.04 0.04 0.05 0.06 0.09 0.11 0.11 0.10 0.09 0.09 0.11 0.11 0.11 0.10 0.10 0.09 0.09 0.09 0.09 0.06 0.05 0.04 0.03 0.03 0.02 0.02 0.01 0.01 0.01 0.01 0.01 0.01
0.03 0.03 0.05 0.03 0.03 0.03 0.04 0.03 0.03 0.03 0.02 0.03 0.03 0.05 0.05 0.07 0.09 0.11 0.10 0.10 0.12 0.12 0.12 0.14 0.13 0.14 0.13 0.12 0.12 0.11 0.10 0.11 0.06 0.05 0.04 0.03 0.03 0.02 0.01 0.01 0.01 0.01 0.01
0.03 0.03 0.04 0.03 0.04 0.04 0.03 0.03 0.03 0.02 0.02 0.02 0.02 0.03 0.04 0.05 0.05 0.06 0.06 0.08 0.10 0.11 0.12 0.14 0.13 0.11 0.10 0.12 0.12 0.12 0.12 0.12 0.10 0.08 0.06 0.04 0.04 0.03 0.02 0.01 0.01 0.01 0.01
0.02 0.03 0.03 0.04 0.03 0.03 0.02 0.03 0.03 0.02 0.01 0.01 0.01 0.02 0.02 0.03 0.02 0.03 0.03 0.05 0.06 0.06 0.08 0.09 0.09 0.07 0.07 0.09 0.10 0.11 0.11 0.11 0.11 0.10 0.10 0.08 0.07 0.04 0.03 0.03 0.02 0.02 0.01
0.02 0.02 0.02 0.03 0.03 0.02 0.03 0.03 0.02 0.02 0.02 0.02 0.01 0.02 0.02 0.02 0.02 0.03 0.03 0.03 0.03 0.03 0.04 0.05 0.06 0.06 0.05 0.07 0.10 0.12 0.12 0.11 0.10 0.08 0.09 0.09 0.08 0.06 0.04 0.03 0.03 0.03 0.03
0.02 0.02 0.02 0.02 0.03 0.03 0.03 0.03 0.02 0.02 0.02 0.02 0.02 0.02 0.02 0.02 0.04 0.04 0.04 0.04 0.03 0.03 0.03 0.04 0.04 0.04 0.05 0.06 0.09 0.09 0.09 0.09 0.09 0.09 0.11 0.10 0.09 0.08 0.06 0.05 0.05 0.04 0.03
0.02 0.03 0.02 0.03 0.04 0.03 0.04 0.04 0.04 0.03 0.02 0.02 0.02 0.02 0.02 0.03 0.04 0.05 0.04 0.04 0.03 0.04 0.04 0.03 0.03 0.03 0.04 0.06 0.07 0.07 0.08 0.08 0.07 0.07 0.08 0.07 0.08 0.08 0.06 0.07 0.07 0.07 0.07
0.02 0.02 0.02 0.03 0.04 0.03 0.04 0.04 0.03 0.02 0.02 0.02 0.02 0.02 0.02 0.02 0.04 0.04 0.03 0.03 0.03 0.04 0.05 0.04 0.03 0.03 0.02 0.03 0.04 0.05 0.06 0.07 0.06 0.05 0.06 0.05 0.06 0.09 0.08 0.08 0.07 0.07 0.07
0.03 0.03 0.03 0.04 0.03 0.03 0.04 0.04 0.02 0.02 0.02 0.03 0.03 0.02 0.03 0.02 0.02 0.02 0.03 0.03 0.03 0.03 0.03 0.03 0.02 0.01 0.02 0.02 0.03 0.03 0.04 0.05 0.05 0.05 0.05 0.05 0.05 0.08 0.09 0.08 0.08 0.07 0.07
MSLP
1013.79 1013.84 1013.82 1013.74 1013.65 1013.56 1013.49 1013.45 1013.42 1013.37 1013.27 1013.12 1012.92 1012.68 1012.44 1012.25 1012.15 1012.17 1012.30 1012.52 1012.80 1013.09 1013.35 1013.54 1013.66 1013.71 1013.74 1013.77 1013.84 1013.98 1014.20 1014.49 1014.84 1015.23 1015.62 1016.02 1016.39 1016.73 1017.06 1017.36 1017.65 1017.93 1018.22
1013.55 1013.60 1013.58 1013.52 1013.43 1013.35 1013.28 1013.23 1013.19 1013.14 1013.04 1012.89 1012.69 1012.44 1012.19 1011.97 1011.82 1011.78 1011.85 1012.01 1012.26 1012.53 1012.79 1013.02 1013.18 1013.29 1013.36 1013.43 1013.52 1013.66 1013.86 1014.14 1014.48 1014.88 1015.29 1015.71 1016.12 1016.51 1016.86 1017.17 1017.46 1017.73 1017.99
1013.32 1013.38 1013.38 1013.34 1013.27 1013.20 1013.14 1013.09 1013.04 1012.98 1012.88 1012.74 1012.53 1012.28 1012.01 1011.75 1011.55 1011.42 1011.41 1011.49 1011.66 1011.89 1012.14 1012.38 1012.59 1012.75 1012.89 1013.00 1013.12 1013.28 1013.48 1013.74 1014.07 1014.46 1014.88 1015.31 1015.75 1016.17 1016.56 1016.90 1017.21 1017.49 1017.75
1013.09 1013.17 1013.20 1013.19 1013.15 1013.10 1013.04 1012.98 1012.93 1012.86 1012.76 1012.62 1012.42 1012.17 1011.88 1011.59 1011.32 1011.12 1011.01 1011.00 1011.08 1011.24 1011.45 1011.69 1011.93 1012.15 1012.34 1012.51 1012.68 1012.85 1013.06 1013.31 1013.61 1013.97 1014.37 1014.81 1015.26 1015.70 1016.12 1016.50 1016.85 1017.16 1017.44
1012.82 1012.93 1013.00 1013.04 1013.03 1013.01 1012.96 1012.91 1012.84 1012.76 1012.66 1012.52 1012.32 1012.08 1011.79 1011.48 1011.17 1010.91 1010.71 1010.59 1010.58 1010.66 1010.82 1011.04 1011.29 1011.55 1011.80 1012.02 1012.23 1012.42 1012.63 1012.86 1013.13 1013.44 1013.81 1014.22 1014.65 1015.10 1015.55 1015.96 1016.35 1016.70 1017.02
1012.50 1012.64 1012.77 1012.86 1012.91 1012.91 1012.88 1012.83 1012.76 1012.67 1012.56 1012.43 1012.25 1012.02 1011.75 1011.45 1011.12 1010.81 1010.55 1010.35 1010.25 1010.25 1010.34 1010.52 1010.76 1011.04 1011.32 1011.59 1011.83 1012.05 1012.25 1012.46 1012.68 1012.94 1013.25 1013.61 1014.00 1014.43 1014.88 1015.31 1015.73 1016.12 1016.47
1012.13 1012.31 1012.50 1012.65 1012.75 1012.80 1012.80 1012.76 1012.69 1012.60 1012.49 1012.36 1012.21 1012.02 1011.79 1011.51 1011.20 1010.88 1010.58 1010.32 1010.13 1010.05 1010.07 1010.20 1010.41 1010.68 1010.97 1011.27 1011.54 1011.77 1011.97 1012.15 1012.33 1012.53 1012.76 1013.05 1013.38 1013.76 1014.17 1014.60 1015.02 1015.43 1015.82
1011.72 1011.95 1012.19 1012.40 1012.57 1012.67 1012.71 1012.69 1012.63 1012.55 1012.45 1012.35 1012.23 1012.09 1011.92 1011.70 1011.43 1011.12 1010.80 1010.50 1010.25 1010.09 1010.03 1010.09 1010.25 1010.49 1010.77 1011.07 1011.36 1011.60 1011.80 1011.96 1012.10 1012.24 1012.40 1012.60 1012.85 1013.15 1013.50 1013.89 1014.29 1014.69 1015.09
1011.30 1011.56 1011.85 1012.13 1012.36 1012.53 1012.62 1012.64 1012.60 1012.54 1012.46 1012.39 1012.32 1012.24 1012.13 1011.98 1011.77 1011.50 1011.19 1010.87 1010.57 1010.34 1010.20 1010.17 1010.25 1010.44 1010.69 1010.97 1011.26 1011.51 1011.72 1011.87 1011.98 1012.07 1012.17 1012.29 1012.45 1012.67 1012.94 1013.25 1013.59 1013.96 1014.33
1010.87 1011.15 1011.48 1011.82 1012.12 1012.36 1012.51 1012.58 1012.59 1012.56 1012.51 1012.48 1012.45 1012.43 1012.39 1012.31 1012.17 1011.94 1011.66 1011.33 1011.00 1010.70 1010.47 1010.35 1010.35 1010.46 1010.66 1010.91 1011.18 1011.44 1011.66 1011.82 1011.93 1012.00 1012.05 1012.11 1012.20 1012.33 1012.50 1012.73 1013.00 1013.29 1013.61
1010.44 1010.72 1011.09 1011.48 1011.84 1012.15 1012.37 1012.50 1012.56 1012.57 1012.56 1012.56 1012.58 1012.61 1012.63 1012.61 1012.52 1012.35 1012.10 1011.78 1011.42 1011.06 1010.76 1010.55 1010.46 1010.48 1010.61 1010.82 1011.07 1011.32 1011.55 1011.73 1011.86 1011.94 1011.98 1012.02 1012.05 1012.12 1012.21 1012.35 1012.53 1012.75 1013.00
1009.98 1010.27 1010.65 1011.08 1011.50 1011.88 1012.17 1012.36 1012.47 1012.52 1012.55 1012.58 1012.63 1012.69 1012.75 1012.78 1012.75 1012.63 1012.41 1012.10 1011.73 1011.35 1010.99 1010.70 1010.51 1010.45 1010.50 1010.64 1010.86 1011.10 1011.34 1011.56 1011.72 1011.83 1011.90 1011.94 1011.97 1011.99 1012.04 1012.11 1012.21 1012.35 1012.53
1009.48 1009.77 1010.17 1010.63 1011.10 1011.53 1011.88 1012.13 1012.30 1012.39 1012.44 1012.49 1012.56 1012.63 1012.72 1012.78 1012.78 1012.70 1012.52 1012.25 1011.89 1011.49 1011.10 1010.75 1010.49 1010.34 1010.31 1010.39 1010.56 1010.78 1011.03 1011.26 1011.47 1011.64 1011.76 1011.84 1011.89 1011.92 1011.95 1011.98 1012.03 1012.11 1012.22
1008.96 1009.24 1009.64 1010.12 1010.62 1011.10 1011.50 1011.80 1012.01 1012.14 1012.21 1012.26 1012.33 1012.40 1012.49 1012.56 1012.60 1012.56 1012.43 1012.19 1011.87 1011.49 1011.09 1010.72 1010.40 1010.19 1010.09 1010.09 1010.20 1010.39 1010.62 1010.88 1011.12 1011.34 1011.53 1011.67 1011.78 1011.85 1011.90 1011.93 1011.97 1012.01 1012.08
1008.44 1008.71 1009.11 1009.60 1010.12 1010.62 1011.06 1011.40 1011.63 1011.78 1011.86 1011.91 1011.96 1012.02 1012.10 1012.18 1012.23 1012.23 1012.15 1011.98 1011.72 1011.39 1011.02 1010.64 1010.31 1010.05 1009.88 1009.82 1009.86 1009.99 1010.19 1010.44 1010.70 1010.97 1011.21 1011.42 1011.60 1011.74 1011.84 1011.92 1011.97 1012.02 1012.07
1007.96 1008.23 1008.62 1009.10 1009.62 1010.13 1010.59 1010.95 1011.20 1011.35 1011.43 1011.47 1011.50 1011.54 1011.60 1011.68 1011.74 1011.78 1011.76 1011.66 1011.48 1011.22 1010.91 1010.58 1010.25 1009.97 1009.75 1009.62 1009.59 1009.65 1009.80 1010.01 1010.26 1010.54 1010.83 1011.10 1011.35 1011.56 1011.74 1011.88 1011.98 1012.07 1012.14
1007.58 1007.85 1008.22 1008.69 1009.19 1009.69 1010.14 1010.51 1010.77 1010.92 1011.00 1011.02 1011.03 1011.04 1011.08 1011.15 1011.23 1011.30 1011.33 1011.31 1011.21 1011.05 1010.82 1010.54 1010.25 1009.96 1009.72 1009.54 1009.43 1009.41 1009.48 1009.62 1009.84 1010.10 1010.40 1010.71 1011.01 1011.29 1011.54 1011.76 1011.93 1012.07 1012.19
1007.35 1007.60 1007.95 1008.38 1008.86 1009.34 1009.77 1010.12 1010.38 1010.53 1010.60 1010.61 1010.60 1010.59 1010.61 1010.66 1010.74 1010.83 1010.91 1010.96 1010.94 1010.87 1010.72 1010.51 1010.27 1010.00 1009.74 1009.52 1009.35 1009.24 1009.22 1009.29 1009.43 1009.65 1009.92 1010.24 1010.57 1010.90 1011.21 1011.50 1011.75 1011.97 1012.15
1007.26 1007.49 1007.81 1008.20 1008.63 1009.07 1009.48 1009.81 1010.05 1010.20 1010.27 1010.27 1010.24 1010.22 1010.22 1010.25 1010.32 1010.42 1010.52 1010.61 1010.65 1010.64 1010.57 1010.43 1010.23 1009.99 1009.74 1009.49 1009.26 1009.09 1008.99 1008.97 1009.03 1009.18 1009.40 1009.69 1010.01 1010.37 1010.72 1011.07 1011.39 1011.69 1011.95
1007.30 1007.50 1007.77 1008.11 1008.49 1008.88 1009.25 1009.56 1009.79 1009.93 1009.99 1010.00 1009.97 1009.93 1009.91 1009.92 1009.97 1010.04 1010.14 1010.23 1010.30 1010.32 1010.29 1010.20 1010.05 1009.84 1009.60 1009.34 1009.09 1008.86 1008.70 1008.60 1008.58 1008.66 1008.82 1009.05 1009.35 1009.69 1010.07 1010.45 1010.83 1011.20 1011.54
1007.42 1007.58 1007.80 1008.08 1008.40 1008.74 1009.06 1009.34 1009.56 1009.70 1009.76 1009.77 1009.74 1009.69 1009.65 1009.63 1009.64 1009.67 1009.73 1009.79 1009.84 1009.86 1009.84 1009.76 1009.63 1009.45 1009.23 1008.98 1008.72 1008.48 1008.28 1008.13 1008.05 1008.06 1008.15 1008.33 1008.58 1008.90 1009.26 1009.66 1010.08 1010.50 1010.92
1007.57 1007.69 1007.85 1008.07 1008.34 1008.62 1008.90 1009.15 1009.35 1009.48 1009.55 1009.57 1009.54 1009.48 1009.42 1009.36 1009.31 1009.28 1009.26 1009.26 1009.25 1009.22 1009.17 1009.09 1008.96 1008.79 1008.59 1008.37 1008.13 1007.90 1007.69 1007.53 1007.42 1007.38 1007.42 1007.54 1007.74 1008.02 1008.36 1008.75 1009.19 1009.66 1010.14
1007.72 1007.78 1007.90 1008.07 1008.28 1008.52 1008.75 1008.97 1009.15 1009.28 1009.36 1009.38 1009.35 1009.28 1009.19 1009.09 1008.97 1008.86 1008.76 1008.65 1008.55 1008.45 1008.33 1008.21 1008.06 1007.90 1007.72 1007.52 1007.32 1007.13 1006.95 1006.80 1006.69 1006.64 1006.65 1006.73 1006.89 1007.12 1007.43 1007.80 1008.24 1008.73 1009.25
1007.85 1007.89 1007.97 1008.10 1008.27 1008.46 1008.65 1008.84 1009.00 1009.13 1009.20 1009.22 1009.19 1009.11 1008.98 1008.83 1008.65 1008.45 1008.24 1008.03 1007.82 1007.61 1007.41 1007.22 1007.04 1006.86 1006.69 1006.52 1006.37 1006.22 1006.09 1005.99 1005.91 1005.87 1005.88 1005.94 1006.07 1006.26 1006.53 1006.88 1007.30 1007.79 1008.34
1008.01 1008.04 1008.10 1008.21 1008.34 1008.50 1008.66 1008.82 1008.96 1009.06 1009.12 1009.12 1009.08 1008.98 1008.82 1008.62 1008.37 1008.08 1007.78 1007.46 1007.14 1006.82 1006.53 1006.26 1006.02 1005.81 1005.64 1005.49 1005.38 1005.28 1005.21 1005.16 1005.13 1005.12 1005.15 1005.21 1005.32 1005.49 1005.73 1006.04 1006.43 1006.91 1007.46
1008.25 1008.27 1008.34 1008.44 1008.56 1008.69 1008.83 1008.95 1009.06 1009.13 1009.16 1009.14 1009.06 1008.93 1008.74 1008.48 1008.17 1007.82 1007.43 1007.01 1006.59 1006.18 1005.80 1005.45 1005.14 1004.89 1004.70 1004.55 1004.46 1004.40 1004.37 1004.37 1004.39 1004.43 1004.49 1004.57 1004.68 1004.84 1005.05 1005.33 1005.69 1006.13 1006.65
Thickness
5780 5780 5778 5778 5778 5777 5776 5776 5775 5775 5774 5775 5776 5777 5777 5776 5775 5774 5772 5770 5768 5766 5763 5761 5759 5758 5756 5754 5752 5750 5748 5746 5745 5743 5742 5741 5739 5738 5736 5734 5733 5731 5730
5781 5780 5780 5780 5780 5779 5778 5777 5776 5775 5775 5775 5776 5777 5778 5778 5776 5775 5773 5771 5769 5767 5765 5763 5761 5759 5757 5755 5753 5751 5749 5747 5745 5744 5742 5741 5739 5738 5736 5734 5733 5731 5730
5782 5781 5780 5780 5780 5780 5779 5778 5777 5776 5776 5775 5774 5776 5778 5778 5777 5776 5775 5772 5770 5768 5766 5764 5762 5760 5758 5756 5754 5752 5750 5748 5746 5744 5742 5741 5739 5737 5736 5734 5732 5731 5730
5782 5782 5781 5781 5781 5781 5780 5778 5777 5775 5774 5773 5774 5775 5777 5778 5778 5777 5776 5775 5772 5770 5768 5765 5763 5761 5759 5757 5755 5753 5750 5748 5746 5744 5743 5741 5739 5738 5736 5734 5732 5731 5729
5782 5782 5781 5781 5781 5781 5780 5779 5777 5774 5772 5772 5772 5774 5776 5777 5778 5778 5777 5776 5774 5772 5770 5767 5764 5762 5760 5758 5755 5753 5751 5749 5747 5745 5743 5742 5740 5738 5736 5734 5733 5731 5729
5783 5782 5781 5781 5781 5779 5777 5776 5774 5773 5772 5771 5773 5773 5774 5777 5778 5778 5777 5776 5775 5773 5772 5769 5765 5763 5761 5759 5756 5754 5752 5749 5747 5745 5744 5742 5740 5739 5737 5735 5733 5731 5729
5784 5782 5781 5780 5779 5777 5775 5775 5773 5771 5770 5771 5768 5765 5770 5776 5776 5778 5777 5775 5774 5773 5772 5770 5767 5765 5762 5758 5756 5754 5752 5749 5747 5745 5743 5742 5740 5738 5737 5735 5733 5731 5730
5784 5784 5780 5779 5778 5776 5774 5772 5771 5768 5768 5770 5764 5758 5755 5760 5768 5776 5775 5773 5773 5773 5772 5771 5769 5766 5763 5759 5756 5754 5751 5749 5747 5745 5743 5741 5739 5737 5736 5734 5733 5731 5729
5784 5782 5780 5778 5777 5775 5772 5771 5770 5768 5764 5766 5767 5759 5750 5747 5755 5765 5770 5771 5771 5770 5770 5770 5768 5766 5763 5760 5757 5753 5751 5749 5747 5745 5742 5740 5738 5736 5734 5732 5731 5729 5727
5782 5780 5778 5777 5775 5774 5771 5771 5770 5768 5765 5762 5764 5764 5760 5757 5749 5749 5759 5766 5767 5766 5767 5768 5766 5764 5762 5759 5756 5753 5750 5748 5745 5743 5741 5739 5736 5734 5732 5730 5729 5727 5725
5780 5779 5776 5774 5773 5772 5770 5769 5768 5767 5765 5762 5761 5760 5759 5758 5757 5749 5745 5753 5759 5763 5765 5764 5762 5760 5760 5758 5755 5752 5749 5746 5744 5741 5739 5737 5735 5732 5730 5728 5726 5724 5723
5779 5777 5775 5773 5771 5770 5768 5767 5766 5764 5763 5762 5761 5760 5757 5754 5752 5750 5745 5746 5748 5755 5761 5761 5759 5758 5757 5754 5751 5749 5746 5743 5740 5738 5736 5734 5732 5730 5728 5725 5723 5722 5720
5775 5775 5774 5772 5769 5768 5767 5766 5764 5762 5761 5760 5758 5758 5758 5757 5756 5752 5747 5744 5745 5749 5753 5755 5756 5755 5754 5751 5748 5744 5741 5739 5737 5734 5732 5730 5728 5726 5724 5723 5720 5718 5717
5775 5774 5772 5770 5768 5766 5765 5763 5762 5760 5760 5758 5758 5756 5755 5756 5756 5753 5748 5743 5738 5740 5742 5744 5749 5750 5749 5747 5744 5740 5738 5735 5733 5730 5728 5727 5725 5723 5721 5719 5717 5715 5713
5774 5772 5770 5767 5765 5763 5762 5760 5758 5757 5756 5755 5754 5753 5751 5752 5752 5752 5750 5746 5737 5730 5731 5739 5741 5744 5743 5742 5739 5736 5734 5732 5730 5727 5725 5723 5721 5719 5717 5714 5713 5711 5709
5771 5769 5766 5764 5762 5760 5759 5757 5755 5754 5752 5750 5750 5748 5746 5747 5747 5746 5745 5743 5741 5734 5729 5734 5737 5739 5739 5737 5735 5732 5730 5727 5725 5724 5721 5719 5717 5715 5713 5710 5708 5706 5704
5768 5765 5763 5760 5758 5756 5755 5753 5751 5750 5747 5746 5745 5743 5741 5741 5740 5739 5738 5737 5735 5732 5725 5728 5732 5734 5732 5730 5729 5727 5726 5724 5722 5720 5718 5716 5713 5711 5709 5706 5704 5702 5700
5765 5763 5760 5757 5755 5753 5751 5749 5746 5745 5743 5740 5739 5737 5735 5736 5733 5732 5730 5729 5728 5726 5722 5718 5722 5724 5724 5724 5723 5721 5721 5721 5719 5716 5714 5711 5709 5707 5704 5702 5699 5697 5695
5761 5759 5757 5754 5751 5750 5748 5745 5743 5740 5738 5736 5734 5731 5729 5728 5725 5725 5723 5721 5720 5720 5717 5714 5714 5715 5716 5717 5715 5715 5715 5714 5714 5711 5708 5706 5704 5702 5699 5697 5694 5692 5690
5758 5755 5753 5751 5748 5746 5744 5741 5738 5736 5733 5731 5729 5726 5724 5721 5719 5717 5716 5714 5714 5711 5710 5708 5707 5707 5707 5709 5707 5705 5704 5705 5705 5705 5703 5701 5698 5696 5694 5692 5689 5687 5685
5756 5753 5750 5747 5745 5742 5740 5736 5733 5731 5727 5724 5722 5720 5718 5716 5714 5711 5709 5707 5706 5704 5702 5700 5698 5698 5698 5697 5696 5698 5695 5696 5697 5697 5695 5694 5692 5689 5687 5685 5684 5682 5680
5751 5748 5745 5742 5740 5739 5735 5731 5727 5724 5722 5718 5715 5713 5711 5710 5707 5704 5702 5700 5699 5696 5694 5691 5690 5688 5689 5690 5690 5690 5688 5686 5684 5688 5686 5684 5685 5683 5682 5681 5679 5677 5675
5745 5742 5740 5737 5734 5730 5727 5724 5720 5718 5716 5713 5710 5707 5706 5704 5700 5697 5695 5694 5692 5690 5689 5686 5683 5682 5682 5683 5682 5680 5680 5679 5677 5680 5678 5675 5677 5676 5676 5676 5675 5672 5670
5739 5736 5734 5731 5727 5723 5719 5717 5714 5712 5709 5707 5704 5701 5697 5694 5692 5688 5687 5685 5684 5683 5682 5681 5679 5678 5678 5677 5676 5675 5673 5673 5673 5674 5673 5668 5669 5669 5670 5669 5668 5666 5663
5733 5731 5729 5725 5721 5715 5712 5709 5705 5704 5701 5699 5697 5694 5691 5686 5682 5680 5678 5676 5675 5674 5675 5674 5673 5672 5671 5670 5669 5667 5666 5663 5662 5664 5666 5662 5661 5661 5662 5660 5660 5658 5657
5727 5725 5722 5719 5714 5709 5704 5701 5697 5696 5693 5690 5688 5685 5681 5677 5674 5671 5668 5666 5664 5664 5664 5665 5664 5664 5663 5663 5662 5660 5658 5655 5654 5654 5656 5654 5653 5652 5650 5652 5651 5650 5647